This demonstration page uses our WeatherBlox Daily Observations layout. Learn more.

Left ArrowRight Arrow

39.08367, -84.50855

Hourly Observations for April 18, 2020

Temp ( °F °C ) Dew Point ( °F °C ) Humidity (%) Winds ( mph kmh ) Pressure ( in mb ) Visibility ( mi km ) Precip ( " mm )
12:53 am 00:53 Cloudy 41 5 37 2.8 86 86 NNW 8 13 29.97 1015 10 16 0.00 0.00
1:13 am 01:13 Cloudy 41 5 36 2.2 82 82 NW 9 15 30.00 1016 10 16 0.00 0.00
1:42 am 01:42 Cloudy 40 4.4 36 2.2 86 86 NNW 9 15 30.01 1016 10 16 0.00 0.00
1:53 am 01:53 Cloudy 40 4.4 35 1.7 83 83 NNW 9 15 29.98 1015 10 16 0.00 0.00
2:29 am 02:29 Cloudy 39 3.9 34 1.1 82 82 NNW 14 22 30.02 1017 10 16 0.00 0.00
2:53 am 02:53 Cloudy 38 3.3 32 0 79 79 NW 10 17 30.01 1016 10 16 0.00 0.00
3:53 am 03:53 Cloudy 37 2.8 31 -0.6 79 79 N 9 15 30.01 1016 10 16 0.00 0.00
4:53 am 04:53 Cloudy 38 3.3 31 -0.6 76 76 NNW 8 13 30.04 1017 10 16 0.00 0.00
5:53 am 05:53 Cloudy 38 3.3 29 -1.7 70 70 NW 9 15 30.07 1018 10 16 0.00 0.00
6:49 am 06:49 Cloudy 37 3 28 -2 70 70 NNW 8 13 30.11 1020 10 16 0.00 0.00
6:53 am 06:53 Cloudy 38 3.3 29 -1.7 70 70 NNW 6 9 30.10 1019 10 16 0.00 0.00
7:53 am 07:53 Mostly Cloudy 38 3.3 30 -1.1 73 73 NNW 7 11 30.13 1020 10 16 0.00 0.00
8:53 am 08:53 Mostly Sunny 39 3.9 30 -1.1 70 70 NNW 8 13 30.14 1021 10 16 0.00 0.00
9:53 am 09:53 Partly Cloudy 42 5.6 31 -0.6 65 65 N 7 11 30.15 1021 10 16 0.00 0.00
10:53 am 10:53 Partly Cloudy 42 5.6 30 -1.1 62 62 NW 6 9 30.16 1021 8 13 0.00 0.00
11:53 am 11:53 Mostly Cloudy 47 8.3 33 0.6 59 59 NNW 5 7 30.15 1021 10 16 0.00 0.00
12:53 pm 12:53 Partly Cloudy 50 10 34 1.1 54 54 SSW 9 15 30.14 1021 10 16 0.00 0.00
1:53 pm 13:53 Mostly Cloudy 50 10 31 -0.6 48 48 S 8 13 30.11 1020 10 16 0.00 0.00
2:53 pm 14:53 Mostly Cloudy 54 12.2 32 0 43 43 SW 7 11 30.08 1019 10 16 0.00 0.00
3:53 pm 15:53 Mostly Sunny 52 11.1 30 -1.1 43 43 Calm 30.05 1018 10 16 0.00 0.00
4:53 pm 16:53 Sunny 54 12.2 32 0 43 43 SSW 9 15 30.00 1016 10 16 0.00 0.00
5:53 pm 17:53 Sunny 54 12.2 32 0 43 43 SSW 10 17 30.00 1016 10 16 0.00 0.00
6:53 pm 18:53 Sunny 53 11.7 31 -0.6 43 43 SW 9 15 29.99 1016 10 16 0.00 0.00
7:53 pm 19:53 Sunny 51 10.6 32 0 48 48 SSW 10 17 29.99 1016 10 16 0.00 0.00
8:53 pm 20:53 Clear 46 7.8 33 0.6 61 61 SSW 7 11 29.99 1016 10 16 0.00 0.00
9:53 pm 21:53 Clear 44 6.7 34 1.1 68 68 S 6 9 30.00 1016 10 16 0.00 0.00
10:53 pm 22:53 Clear 41 5 35 1.7 79 79 SSW 6 9 29.99 1016 10 16 0.00 0.00
11:53 pm 23:53 Clear 40 4.4 33 0.6 77 77 SSW 9 15 29.98 1015 10 16 0.00 0.00

Powered by AerisWeather